Weather History for St. Paul, MN

Change the Weather History Date:

Wednesday, May 15, 2013

  Actual Average Record
Temperature  
Mean Temperature 66 °F -  
Max Temperature 77 °F 66 °F 84 °F (1998)
Min Temperature 55 °F 45 °F 34 °F (2004)
Cooling Degree Days 1    
Growing Degree Days 16 (Base 50)    
Moisture  
Dew Point 45 °F    
Average Humidity 45    
Maximum Humidity 62    
Minimum Humidity 30    
Precipitation  
Precipitation 0.00 in - - ()
Sea Level Pressure  
Sea Level Pressure 29.83 in    
Wind  
Wind Speed 12 mph (West)    
Max Wind Speed 23 mph    
Max Gust Speed 30 mph    
Visibility 10 miles    
Events      
Averages and records for this station are not official NWS values.
T = Trace of Precipitation, MM = Missing Value Source: NWS Daily Summary

Daily Weather History Graph

Daily Weather History Graph

Search for Another Location

Airport:

Trip Planner

Search our weather history database for the weather conditions in past years. The results will help you decide how hot, cold, wet, or windy it might be!

Date:

Astronomy

May. 15, 2013 Rise Set
Actual Time 5:43 AM CDT 8:34 PM CDT
Civil Twilight 5:08 AM CDT 9:09 PM CDT
Nautical Twilight 4:25 AM CDT 9:52 PM CDT
Astronomical Twilight 3:34 AM CDT 10:44 PM CDT
Moon 10:21 AM CDT (5/15) 12:19 AM CDT (5/15)
Length of Visible Light 16h 00m
Length of Day
14h 51m
Waxing Crescent, 27% of the Moon is Illuminated
May 15
Waxing Crescent
May 17
First Quarter
May 24
Full
May 31
Last Quarter
Jun 8
New

Hourly Weather History & Observations

Time (CDT) Temp. Dew Point Humidity Pressure Visibility Wind Dir Wind Speed Gust Speed Precip Events Conditions
12:53 AM 68.0 °F 44.1 °F 42% 29.68 in 10.0 mi NW 15.0 mph 26.5 mph N/A   Clear
1:53 AM 64.9 °F 46.0 °F 50% 29.71 in 10.0 mi NW 23.0 mph 29.9 mph N/A   Clear
2:53 AM 62.1 °F 44.1 °F 52% 29.75 in 10.0 mi NNW 16.1 mph 24.2 mph N/A   Clear
3:53 AM 60.1 °F 44.1 °F 55% 29.78 in 10.0 mi NNW 12.7 mph - N/A   Clear
4:53 AM 55.9 °F 43.0 °F 62% 29.80 in 10.0 mi NW 8.1 mph - N/A   Clear
5:53 AM 55.9 °F 43.0 °F 62% 29.83 in 10.0 mi West 4.6 mph - N/A   Clear
6:53 AM 59.0 °F 45.0 °F 60% 29.89 in 10.0 mi West 9.2 mph - N/A   Clear
7:53 AM 62.1 °F 45.0 °F 53% 29.91 in 10.0 mi WNW 10.4 mph - N/A   Clear
8:53 AM 62.1 °F 45.0 °F 53% 29.91 in 10.0 mi NW 6.9 mph - N/A   Clear
9:53 AM 62.1 °F 45.0 °F 53% 29.90 in 10.0 mi NW 4.6 mph - N/A   Partly Cloudy
10:53 AM 64.0 °F 46.0 °F 52% 29.88 in 10.0 mi North 3.5 mph - N/A   Clear
11:53 AM 66.0 °F 44.1 °F 45% 29.90 in 10.0 mi Calm Calm - N/A   Clear
12:53 PM 70.0 °F 44.1 °F 39% 29.88 in 10.0 mi SW 10.4 mph - N/A   Clear
1:53 PM 72.0 °F 44.1 °F 37% 29.87 in 10.0 mi WSW 11.5 mph - N/A   Clear
2:53 PM 73.0 °F 45.0 °F 37% 29.85 in 10.0 mi SW 9.2 mph 19.6 mph N/A   Clear
3:53 PM 75.9 °F 44.1 °F 32% 29.83 in 10.0 mi WSW 13.8 mph 18.4 mph N/A   Clear
4:53 PM 75.9 °F 43.0 °F 31% 29.82 in 10.0 mi WSW 8.1 mph 20.7 mph N/A   Clear
5:53 PM 77.0 °F 43.0 °F 30% 29.81 in 10.0 mi SW 13.8 mph - N/A   Clear
6:53 PM 75.9 °F 45.0 °F 33% 29.80 in 10.0 mi SW 15.0 mph - N/A   Partly Cloudy
7:53 PM 73.9 °F 46.0 °F 37% 29.80 in 10.0 mi SW 11.5 mph - N/A   Clear
8:53 PM 73.0 °F 46.0 °F 38% 29.80 in 10.0 mi SW 10.4 mph - N/A   Clear
9:53 PM 68.0 °F 46.9 °F 47% 29.82 in 10.0 mi SSW 4.6 mph - N/A   Clear
10:53 PM 66.9 °F 46.9 °F 49% 29.82 in 10.0 mi SW 4.6 mph - N/A   Clear
11:53 PM 68.0 °F 44.1 °F 42% 29.82 in 10.0 mi SW 8.1 mph - N/A   Clear